This demonstration page uses our WeatherBlox Daily Observations layout. Learn more.

Left ArrowRight Arrow

39.12711, -84.51439

Hourly Observations for June 20, 2019

Temp ( °F °C ) Dew Point ( °F °C ) Humidity (%) Winds ( mph kmh ) Pressure ( in mb ) Visibility ( mi km ) Precip ( " mm )
12:13 am 00:13 Cloudy 69 20.6 68 20 96 96 Calm 29.64 1004 10 16 0.00 0.03
12:50 am 00:50 Cloudy 70 21 68 20 94 94 SW 5 7 29.65 1004 9 14 0.00 0.03
12:53 am 00:53 Cloudy 69 20.6 68 20 96 96 SSW 6 9 29.65 1004 9 14 0.00 0.03
1:13 am 01:13 Cloudy 69 20.6 68 20 96 96 Calm 29.64 1004 9 14 0.00 0.00
1:53 am 01:53 Mostly Cloudy with Light Rain 69 20.6 68 20 96 96 Calm 29.62 1003 10 16 0.00 0.03
2:11 am 02:11 Cloudy 69 20.6 68 20 96 96 Calm 29.63 1003 8 13 0.00 0.03
2:53 am 02:53 Cloudy 69 20.6 68 20 96 96 SSW 5 7 29.60 1002 10 16 0.00 0.03
3:08 am 03:08 Cloudy 69 20.6 68 20 96 96 S 3 6 29.60 1002 10 16 0.00 0.00
3:53 am 03:53 Cloudy 69 20.6 68 20 96 96 SSW 9 15 29.59 1002 10 16 0.00 0.00
4:53 am 04:53 Cloudy 69 20.6 67 19.4 93 93 S 8 13 29.60 1002 10 16 0.00 0.00
5:23 am 05:23 Cloudy 69 20.6 67 19.4 93 93 S 8 13 29.60 1002 10 16 0.00 0.00
5:53 am 05:53 Cloudy 69 20.6 67 19.4 93 93 SSW 7 11 29.60 1002 9 14 0.00 0.00
6:03 am 06:03 Cloudy 69 20.6 67 19.4 93 93 S 7 11 29.61 1003 10 16 0.00 0.00
6:53 am 06:53 Cloudy with Mist and Fog 69 20.6 67 19.4 93 93 S 9 15 29.61 1003 6 10 0.00 0.00
7:53 am 07:53 Cloudy with Mist and Fog 69 20.6 66 18.9 90 90 SSW 10 17 29.62 1003 5 8 0.00 0.00
8:53 am 08:53 Cloudy with Mist and Fog 70 21.1 67 19.4 90 90 SSW 10 17 29.62 1003 5 8 0.00 0.00
9:53 am 09:53 Cloudy with Mist and Fog 71 21.7 67 19.4 87 87 SW 13 20 29.62 1003 5 8 0.00 0.00
10:53 am 10:53 Cloudy with Light Rain 71 21.7 68 20 90 90 SW 12 19 29.63 1003 5 8 0.00 0.03
11:20 am 11:20 Cloudy with Light Rain 72 22.2 69 20.6 91 91 SW 13 20 29.62 1003 10 16 0.00 0.03
11:53 am 11:53 Partly Cloudy 74 23.3 68 20 82 82 SSW 16 26 29.61 1003 10 16 0.00 0.03
12:53 pm 12:53 Cloudy 74 23.3 67 19.4 79 79 SW 17 28 29.62 1003 10 16 0.00 0.00
1:53 pm 13:53 Mostly Cloudy 76 24.4 66 18.9 72 72 SW 21 33 29.61 1003 10 16 0.00 0.00
2:53 pm 14:53 Cloudy 72 22.2 63 17.2 73 73 WSW 24 39 29.64 1004 10 16 0.00 0.00
3:17 pm 15:17 Cloudy 71 21.7 63 17.2 76 76 WSW 16 26 29.66 1004 10 16 0.00 0.00
3:24 pm 15:24 Cloudy 71 21.7 63 17.2 76 76 W 24 39 29.66 1004 10 16 0.00 0.00
3:53 pm 15:53 Cloudy 70 21.1 62 16.7 76 76 W 21 33 29.67 1005 10 16 0.00 0.00
4:53 pm 16:53 Cloudy 69 20.6 62 16.7 78 78 W 17 28 29.70 1006 10 16 0.00 0.00
5:49 pm 17:49 Cloudy 70 21 63 17 78 78 W 13 20 29.70 1006 10 16 0.00 0.00
5:53 pm 17:53 Cloudy 71 21.7 63 17.2 76 76 WSW 17 28 29.70 1006 10 16 0.00 0.00
6:24 pm 18:24 Cloudy 70 21.1 63 17.2 79 79 W 10 17 29.72 1006 10 16 0.00 0.00
6:53 pm 18:53 Cloudy 71 21.7 63 17.2 76 76 W 12 19 29.72 1007 10 16 0.00 0.00
7:41 pm 19:41 Cloudy with Light Rain 70 21.1 62 16.7 76 76 W 9 15 29.75 1007 9 14 0.00 0.03
7:53 pm 19:53 Mostly Cloudy with Light Rain 70 21.1 63 17.2 79 79 W 8 13 29.75 1008 10 16 0.00 0.03
8:53 pm 20:53 Mostly Cloudy 70 21.1 62 16.7 76 76 W 6 9 29.77 1008 10 16 0.00 0.03
9:53 pm 21:53 Cloudy 70 21.1 61 16.1 73 73 W 7 11 29.79 1009 10 16 0.00 0.00
10:53 pm 22:53 Cloudy 69 20.6 62 16.7 78 78 VRB 6 9 29.83 1010 10 16 0.00 0.00
11:53 pm 23:53 Cloudy 69 20.6 62 16.7 78 78 Calm 29.85 1011 10 16 0.00 0.00

Powered by AerisWeather